Location: Silverdale
(47.6506°N, 122.6941°W)
Time: 04:08:36
(UTC+00:00)

Altair - Pass Details

Date: 12 October 2022
Orbit: 1501 x 1682 km, 47.2° (Epoch: 05 December)

Event Time Altitude Azimuth Distance (km) Brightness Sun altitude
Rises 14:47:09 0° 281° (W) 4,800 9.4 2.7°
Reaches altitude 10° 14:50:12 10° 280° (W) 3,838 9.0 3.2°
Maximum altitude 15:00:03 79° 197° (SSW) 1,683 7.9 4.8°
Drops below altitude 10° 15:10:11 10° 112° (ESE) 3,937 12.8 6.4°
Sets 15:13:22 0° 112° (ESE) 4,929 12.9 6.9°
